Location: Kumla
(59.1265°N, 15.1401°E)
Time: 23:02:10
(UTC+01:00)

Vanguard 1 - Pass Details

Date: 11 December 2023
Orbit: 653 x 3825 km, 34.3° (Epoch: 04 March)

Event Time Altitude Azimuth Distance (km) Brightness Sun altitude
Rises 17:35:10 0° 227° (SW) 5,388 15.0 -17.4°
Reaches altitude 10° 17:38:56 10° 216° (SW) 4,815 14.3 -17.9°
Maximum altitude 17:50:23 28° 165° (SSE) 4,556 13.4 -19.3°
Drops below altitude 10° 18:06:22 10° 118° (ESE) 6,790 13.9 -21.3°
Enters shadow 18:06:57 - 117° (ESE) 6,890 13.9 -21.4°
